Weather in Šalčininkai

Lithuania     54°18′23″N   25°23′05″E
temp.,
°C
wind,
m/s
gust,
m/s
humid.,
%
clouds,
%
prec.,
mm/h
press.,
hPa
HPBL,
m
16 may, sun
sun1600:00+10w239462 0.0 100941
03:00+11wsw229197 0.0 100953
06:00+11s238886 0.0 100962
09:00+13s458285 0.0 1010356
12:00+17s456697 0.0 10091139
15:00+18sse465882 0.0 10081567
18:00+17se4876100 0.7 1007477
21:00+14ese41086100 1.4 1007206
17 may, mon
mon1700:00+13ese4894100 1.9 1006223
03:00+12sse3109631 2.8 1006358
06:00+12sse41096100 0.5 1006353
09:00+13ssw4595100 0.8 1007407
12:00+16ssw2277100 0.1 1007755
15:00+18n1170100 0.8 1005797
18:00+17e1181100 3.6 1004150
21:00+14n379156 4.7 1003153
18 may, tue
tue1800:00+11e119749 0.2 100313
03:00+11ne2295100 0.2 100319
06:00+11nnw2296100 0.0 100245
09:00+13nnw1291100 0.0 1002260
12:00+14e118894 0.9 1003324
15:00+15s3385100 2.9 1003465
18:00+15wnw128995 1.1 1003143
21:00+13n349265 0.0 100471
19 may, wed
wed1900:00+11n3697100 0.0 1005125
03:00+10nnw3898100 0.0 1005230
06:00+10nnw4997100 0.1 1006348
09:00+11nnw5992100 0.3 1006605
12:00+11nw6993100 4.2 1006712
15:00+10nw71194100 9.1 1007828
18:00+9nw61292100 4.9 1007682
21:00+9nnw51291100 6.2 1007485
20 may, thu
thu2000:00+9wnw3898100 0.9 1007377
03:00+9nw3797100 1.1 1007369
06:00+8wnw41096100 0.0 1007414
09:00+10w4895100 0.0 1008414
12:00+11w468999 0.1 1009511
15:00+13wnw5677100 0.2 1009863
18:00+13wnw3478100 0.1 1010534
21:00+10nw128992 0.2 101012